Location: A�t Lahcen
(32.8243°N, 5.4246°W)
Time: 01:49:26
(UTC+00:00)

NOSS 3-2 (C) - Pass Details

Date: 27 January 2021
Orbit: 788 x 1424 km, 63.4° (Epoch: 25 February)

Event Time Altitude Azimuth Distance (km) Brightness Sun altitude
Exits shadow 05:09:58 19° 190° (S) 1,854 4.9 -27.3°
Maximum altitude 05:13:50 59° 116° (ESE) 971 3.7 -26.5°
Drops below altitude 10° 05:19:41 10° 38° (NE) 2,618 6.1 -25.3°
Sets 05:22:25 0° 35° (NE) 3,654 6.9 -24.7°
